Location: Unspecified
(51.0950°N, 12.9690°E)
Time: 14:50:23
(UTC+00:00)

Cosmos 1455 Rocket - Pass Details

Date: 28 October 2021
Orbit: 604 x 630 km, 82.5° (Epoch: 26 November)

Event Time Altitude Azimuth Distance (km) Brightness Sun altitude
Rises 16:35:45 0° 192° (SSW) 2,901 6.8 -7.9°
Reaches altitude 10° 16:37:58 10° 193° (SSW) 2,001 6.0 -8.2°
Maximum altitude 16:42:25 80° 280° (W) 647 3.3 -8.9°
Drops below altitude 10° 16:46:55 10° 8° (N) 2,023 5.5 -9.6°
Sets 16:49:10 0° 10° (N) 2,936 6.3 -9.9°
